Weather in Shihezi

China     44°18′20″N   86°04′39″E
temp.,
°C
wind,
m/s
gust,
m/s
humid.,
%
clouds,
%
prec.,
mm/h
press.,
hPa
HPBL,
m
5 march, fri
fri523:00−4nne1199100 0.1 102822
02:00−5ese119897 0.2 102921
05:00−4ene129699 0.0 102831
08:00−5nne129999 0.1 102751
11:00−3ne2295100 0.1 1025225
14:00−5wnw7109497 0.5 1026507
17:000w3588100 0.1 1029317
20:00+2ssw2380100 0.1 103333
6 march, sat
sat623:000e2279100 0.0 103625
02:00−4ene238589 0.0 103624
05:00−5sse018323 0.0 103421
08:00−7se018712 0.0 103421
11:00−4nw22890 0.0 1031101
14:00−4nw2210033 0.0 1027266
17:00−3nnw2196100 0.1 1024189
20:00−4nne1198100 0.1 102450
7 march, sun
sun723:00−4nne1198100 0.1 102530
02:00−4nw0097100 0.1 102421
05:00−7w009898 0.1 102321
08:00−6s119698 0.1 102321
11:00−4s008997 0.0 1023198
14:00−3nnw119395 0.1 1022297
17:00−2nnw2194100 0.1 1021216
20:00−4nne1196100 0.1 102221
8 march, mon
mon823:00−5ese0197100 0.0 102421
02:00−6w1195100 0.0 102421
05:00−6ssw0095100 0.0 102321
08:00−6se1192100 0.0 102321
11:00−3ene1185100 0.0 102455
14:00−2nnw119988 0.0 1022191
17:00−2nw229894 0.0 1021240
20:00−2wnw229697 0.0 102471
9 march, tue
tue923:00−4sse118781 0.0 102721
02:00−4ese018255 0.0 102821
05:00−4se117863 0.0 102821
08:00−4se116878 0.0 102922
11:00−1ene117668 0.0 102944
14:00−1ne229962 0.0 1026172
17:00−1nne119940 0.0 1024152
20:00−2n119870 0.0 102421